Home   Weather   Port of Spain   Past weeks

Flag for Trinidad and Tobago Past Weather in Port of Spain, Trinidad and Tobago — Yesterday and Last 2 Weeks

Now
91 °F

Scattered clouds.


Feels Like: 97 °F
Forecast: 80 / 91 °F
Wind: 17 mph from Southeast

Location: Piarco International Airport - Trinidad

Current Time: Apr 23, 2017 at 1:56:21 pm

Latest Report: Apr 23, 2017 at 1:00 pm


Visibility: N/A

Pressure: 29.89 "Hg

Humidity: 49%

Dew Point: 70 °F

Location of Port of SpainLocation

Past Weather in Port of Spain — Graph

°F

Port of Spain Temperature Yesterday

Maximum temperature yesterday: 93 °F (at 1:00 pm)
Minimum temperature yesterday: 75 °F (at 6:00 am)
Average temperature yesterday: 83 °F

High & Low Weather Summary for the Past Weeks

 TemperatureHumidityPressure
High93 °F (Apr 13, 1:00 pm)100% (Apr 18, 10:00 am)29.98 "Hg (Apr 18, 10:00 am)
Low70 °F (Apr 18, 10:00 am)43% (Apr 10, 3:00 pm)29.80 "Hg (Apr 12, 5:00 pm)
Average82 °F73%29.89 "Hg
* Reported Apr 8 12:00 pm — Apr 23 12:00 pm, Port of Spain, Weather by CustomWeather, © 2017

Note: Actual official high and low records may vary slightly from our data, if they occured in-between our weather recording intervals... More about our weather records

Advertising

Port of Spain Weather History for the Previous 24 Hours

Scroll right to see more
 ConditionsComfort  
Time TempWeatherWind HumidityBarometerVisibility
12:00 pm
Sun, Apr 23
91 °FScattered clouds.16 mph49%29.92 "HgN/A
11:00 am91 °FScattered clouds.17 mph52%29.95 "HgN/A
10:00 am88 °FScattered clouds.15 mph55%29.95 "HgN/A
9:00 am86 °FScattered clouds.15 mph62%29.98 "HgN/A
8:00 am84 °FPassing clouds.12 mph70%29.95 "HgN/A
7:00 am79 °FPassing clouds.5 mph84%29.98 "HgN/A
6:00 am75 °FPassing clouds.No wind94%29.92 "HgN/A
5:00 am75 °FPassing clouds.3 mph94%29.89 "HgN/A
4:00 am75 °FPassing clouds.3 mph94%29.89 "HgN/A
3:00 am75 °FPassing clouds.6 mph94%29.89 "HgN/A
2:00 am75 °FPassing clouds.6 mph94%29.89 "HgN/A
1:00 am77 °FPassing clouds.6 mph89%29.92 "HgN/A
12:00 am77 °FPassing clouds.7 mph89%29.95 "HgN/A
11:00 pm
Sat, Apr 22
77 °FPassing clouds.7 mph89%29.95 "HgN/A
10:00 pm79 °FPassing clouds.7 mph84%29.95 "HgN/A
9:00 pm79 °FPassing clouds.8 mph84%29.92 "HgN/A
8:00 pm81 °FPassing clouds.8 mph79%29.92 "HgN/A
7:00 pm81 °FPassing clouds.8 mph74%29.89 "HgN/A
6:00 pm84 °FPassing clouds.12 mph66%29.86 "HgN/A
5:00 pm88 °FPassing clouds.15 mph55%29.86 "Hg2 mi
4:00 pm90 °FPassing clouds.15 mph52%29.86 "HgN/A
3:00 pm91 °FPassing clouds.13 mph49%29.86 "HgN/A
2:00 pm93 °FScattered showers. Passing clouds.14 mph44%29.89 "HgN/A
1:00 pm93 °FPartly sunny.14 mph47%29.89 "HgN/A
Weather by CustomWeather, © 2017

See weather overviewHow to use our weather pages